GW1638 Weather Reports


time (UTC)temp
C
wind
direction
speed
KPH
gust
KPH
rain 1hr
cm
rain 24hr
cm
rain mn
cm
humidity
%
barometer
mb
20260507231438 12 264 6.4 9.7 0.00 0.00 0.00 46 1009.3
20260507230935 12 289 12.9 14.5 0.00 0.00 0.00 46 1009.3
20260507230432 12 254 9.7 14.5 0.00 0.00 0.00 48 1009.3
20260507225932 12 268 11.3 12.9 0.00 0.00 0.00 46 1009.4
20260507225428 12 246 9.7 14.5 0.00 0.00 0.00 45 1009.3
20260507224925 13 300 16.1 20.9 0.00 0.00 0.00 44 1009.2
20260507224420 13 275 9.7 11.3 0.00 0.00 0.00 45 1009.1
20260507223918 13 330 6.4 6.4 0.00 0.00 0.00 45 1009.1
20260507223413 13 296 6.4 6.4 0.00 0.00 0.00 45 1009.0
20260507222911 13 283 9.7 11.3 0.00 0.00 0.00 44 1008.9
20260507222408 13 269 6.4 6.4 0.00 0.00 0.00 46 1008.8
20260507221904 12 303 4.8 4.8 0.00 0.00 0.00 48 1008.9
20260507221401 13 299 6.4 11.3 0.00 0.00 0.00 46 1009.0
20260507220856 13 272 9.7 12.9 0.00 0.00 0.00 47 1008.8
20260507220355 13 293 9.7 11.3 0.00 0.00 0.00 46 1008.8
20260507215851 15 312 9.7 14.5 0.00 0.00 0.00 44 1008.7
20260507215348 14 266 6.4 9.7 0.00 0.00 0.00 45 1008.6
20260507214845 14 232 12.9 17.7 0.00 0.00 0.00 44 1008.8
20260507214343 13 37 9.7 12.9 0.00 0.00 0.00 46 1008.6
20260507213844 15 290 11.3 14.5 0.00 0.00 0.00 42 1008.5
20260507213341 15 281 6.4 6.4 0.00 0.00 0.00 42 1008.4
20260507212837 15 107 12.9 17.7 0.00 0.00 0.00 43 1008.5
20260507212333 13 282 6.4 6.4 0.00 0.00 0.00 43 1008.7
20260507211830 13 254 12.9 16.1 0.00 0.00 0.00 44 1008.7
20260507211327 13 271 9.7 14.5 0.00 0.00 0.00 45 1008.7
20260507210824 13 303 14.5 17.7 0.00 0.00 0.00 44 1008.6
20260507210321 13 330 6.4 11.3 0.00 0.00 0.00 43 1008.3
20260507205817 15 266 12.9 14.5 0.00 0.00 0.00 43 1008.4
20260507205314 15 291 14.5 16.1 0.00 0.00 0.00 45 1008.6
20260507204810 15 250 11.3 14.5 0.00 0.00 0.00 45 1008.4
20260507204308 15 275 14.5 22.5 0.00 0.00 0.00 45 1008.4
20260507203806 15 280 6.4 11.3 0.00 0.00 0.00 43 1008.3
20260507203303 15 209 11.3 14.5 0.00 0.00 0.00 45 1008.4
20260507202759 15 252 4.8 6.4 0.00 0.00 0.00 45 1008.4
20260507202255 14 248 6.4 9.7 0.00 0.00 0.00 45 1008.3
20260507201750 13 287 8.0 9.7 0.00 0.00 0.00 45 1008.5
20260507201247 14 257 9.7 12.9 0.00 0.00 0.00 44 1008.6
20260507200743 15 33 6.4 9.7 0.00 0.00 0.00 41 1008.4
20260507200239 13 288 6.4 6.4 0.00 0.00 0.00 45 1008.7
20260507195735 13 305 11.3 14.5 0.00 0.00 0.00 46 1008.7
20260507195233 15 242 9.7 11.3 0.00 0.00 0.00 46 1008.9
20260507194730 15 264 6.4 9.7 0.00 0.00 0.00 43 1008.8
20260507194226 14 271 14.5 17.7 0.00 0.00 0.00 45 1008.7
20260507193723 13 251 8.0 9.7 0.00 0.00 0.00 47 1008.7
20260507193220 13 272 4.8 6.4 0.00 0.00 0.00 47 1008.8
20260507192716 14 307 6.4 11.3 0.00 0.00 0.00 46 1008.8
20260507192213 15 251 11.3 12.9 0.00 0.00 0.00 46 1008.8
20260507191708 13 274 12.9 14.5 0.00 0.00 0.00 47 1008.8
20260507191206 13 290 9.7 11.3 0.00 0.00 0.00 47 1008.9
20260507190703 14 284 6.4 6.4 0.00 0.00 0.00 47 1008.9
20260507190201 13 283 14.5 16.1 0.00 0.00 0.00 47 1008.8
20260507185659 14 261 14.5 17.7 0.00 0.00 0.00 47 1008.9
20260507185156 15 252 9.7 12.9 0.00 0.00 0.00 49 1008.9
20260507184654 15 249 6.4 6.4 0.00 0.00 0.00 46 1008.9
20260507184151 13 335 6.4 6.4 0.00 0.00 0.00 50 1009.2
20260507183647 13 257 8.0 12.9 0.00 0.00 0.00 49 1009.3
20260507183145 15 297 12.9 16.1 0.00 0.00 0.00 45 1009.3
20260507182642 13 265 14.5 14.5 0.00 0.00 0.00 48 1009.3
20260507182137 13 296 8.0 12.9 0.00 0.00 0.00 52 1009.2
20260507181634 13 316 8.0 11.3 0.00 0.00 0.00 52 1009.3
20260507181130 13 264 8.0 9.7 0.00 0.00 0.00 52 1009.3
20260507180626 13 298 6.4 9.7 0.00 0.00 0.00 51 1009.3
20260507180124 13 274 6.4 6.4 0.00 0.00 0.00 52 1009.3
20260507175619 14 258 11.3 12.9 0.00 0.00 0.00 50 1009.3
20260507175117 14 313 11.3 14.5 0.00 0.00 0.00 53 1009.4
20260507174614 13 277 6.4 6.4 0.00 0.00 0.00 53 1009.5
20260507174112 13 300 4.8 6.4 0.00 0.00 0.00 51 1009.4
20260507173609 13 258 8.0 11.3 0.00 0.00 0.00 52 1009.5
20260507173106 13 278 9.7 11.3 0.00 0.00 0.00 49 1009.7
20260507172602 13 173 4.8 6.4 0.00 0.00 0.00 48 1009.5
20260507172059 14 296 4.8 6.4 0.00 0.00 0.00 54 1009.5
20260507171554 14 296 12.9 16.1 0.00 0.00 0.00 51 1009.7
20260507171052 14 266 11.3 17.7 0.00 0.00 0.00 52 1009.8
20260507170548 13 313 11.3 16.1 0.00 0.00 0.00 53 1009.8
20260507170045 13 244 11.3 12.9 0.00 0.00 0.00 52 1010.0
20260507165541 14 71 3.2 4.8 0.00 0.00 0.00 55 1009.8
20260507165038 13 318 9.7 11.3 0.00 0.00 0.00 55 1009.9
20260507164534 12 258 12.9 16.1 0.00 0.00 0.00 51 1009.9
20260507164031 12 298 4.8 4.8 0.00 0.00 0.00 52 1010.0
20260507163529 13 279 3.2 4.8 0.00 0.00 0.00 54 1010.0
20260507163027 13 358 3.2 3.2 0.00 0.00 0.00 54 1010.1
20260507162526 13 185 6.4 6.4 0.00 0.00 0.00 48 1010.2
20260507162024 13 277 4.8 6.4 0.00 0.00 0.00 54 1010.1
20260507161520 13 162 6.4 6.4 0.00 0.00 0.00 50 1010.1
20260507161017 12 320 3.2 3.2 0.00 0.00 0.00 51 1010.4
20260507160513 12 50 3.2 6.4 0.00 0.00 0.00 49 1010.4
20260507160009 13 324 8.0 9.7 0.00 0.00 0.00 52 1010.5
20260507155505 13 303 8.0 9.7 0.00 0.00 0.00 49 1010.4
20260507155002 12 261 9.7 11.3 0.00 0.00 0.00 56 1010.6
20260507154458 12 293 8.0 12.9 0.00 0.00 0.00 56 1010.5
20260507153955 12 337 4.8 6.4 0.00 0.00 0.00 49 1010.6
20260507153452 12 251 11.3 14.5 0.00 0.00 0.00 54 1010.6
20260507152949 13 82 3.2 4.8 0.00 0.00 0.00 50 1010.7
20260507152445 13 272 3.2 4.8 0.00 0.00 0.00 53 1010.6
20260507151941 12 261 8.0 9.7 0.00 0.00 0.00 52 1010.7
20260507151437 12 320 4.8 4.8 0.00 0.00 0.00 55 1010.9
20260507150934 12 197 8.0 9.7 0.00 0.00 0.00 55 1011.1
20260507150431 12 231 8.0 11.3 0.00 0.00 0.00 53 1010.9
20260507145928 12 274 8.0 9.7 0.00 0.00 0.00 56 1010.9
20260507145423 11 317 9.7 12.9 0.00 0.00 0.00 56 1011.1
20260507144921 11 282 6.4 9.7 0.00 0.00 0.00 62 1011.3
20260507144418 11 336 1.6 1.6 0.00 0.00 0.00 58 1011.1
20260507143915 12 273 6.4 9.7 0.00 0.00 0.00 60 1011.2
20260507143412 12 184 6.4 9.7 0.00 0.00 0.00 62 1011.2
20260507142908 11 241 8.0 9.7 0.00 0.00 0.00 60 1011.4
20260507142404 11 280 11.3 16.1 0.00 0.00 0.00 63 1011.5
20260507141902 11 278 3.2 3.2 0.00 0.00 0.00 62 1011.4
20260507141358 11 304 8.0 9.7 0.00 0.00 0.00 65 1011.5
20260507140854 11 184 6.4 11.3 0.00 0.00 0.00 64 1011.6
20260507140351 11 281 8.0 11.3 0.00 0.00 0.00 62 1011.8
20260507135849 11 271 8.0 9.7 0.00 0.00 0.00 65 1011.6
20260507135345 11 281 6.4 9.7 0.00 0.00 0.00 69 1011.7
20260507134843 10 302 4.8 6.4 0.00 0.00 0.00 68 1011.9
20260507134339 10 12 6.4 9.7 0.00 0.00 0.00 66 1011.9
20260507133835 11 258 6.4 9.7 0.00 0.00 0.00 68 1011.7
20260507133331 10 25 1.6 3.2 0.00 0.00 0.00 70 1011.7
20260507132830 10 99 0.0 1.6 0.00 0.00 0.00 69 1011.7
20260507132325 10 325 3.2 3.2 0.00 0.00 0.00 71 1011.8
20260507131823 10 175 4.8 6.4 0.00 0.00 0.00 71 1011.9
20260507131319 9 242 3.2 3.2 0.00 0.00 0.00 69 1011.9
20260507130816 9 317 6.4 6.4 0.00 0.00 0.00 71 1011.9
20260507130314 9 339 4.8 4.8 0.00 0.00 0.00 72 1012.0
20260507125813 9 285 4.8 4.8 0.00 0.00 0.00 72 1011.9
20260507125310 9 158 4.8 6.4 0.00 0.00 0.00 71 1011.9
20260507124807 8 193 4.8 4.8 0.00 0.00 0.00 72 1012.0
20260507124303 8 335 3.2 3.2 0.00 0.00 0.00 74 1011.8
20260507123801 8 252 4.8 4.8 0.00 0.00 0.00 73 1011.8
20260507123258 8 47 1.6 1.6 0.00 0.00 0.00 78 1012.0
20260507122754 8 59 1.6 3.2 0.00 0.00 0.00 80 1011.8
20260507122249 8 338 1.6 3.2 0.00 0.00 0.00 82 1011.9
20260507121746 7 34 0.0 0.0 0.00 0.00 0.00 86 1012.0
20260507121242 7 47 0.0 0.0 0.00 0.00 0.00 90 1012.0
20260507120738 6 25 0.0 0.0 0.00 0.00 0.00 95 1011.9
20260507120235 6 41 0.0 0.0 0.00 0.00 0.00 97 1012.0
20260507115731 5 32 0.0 0.0 0.00 0.00 0.00 99 1011.9
20260507115227 5 30 0.0 0.0 0.00 0.00 0.00 99 1012.0
20260507114723 4 42 0.0 0.0 0.00 0.00 0.00 99 1012.1
20260507114220 4 29 0.0 0.0 0.00 0.00 0.00 99 1012.2
20260507113718 3 25 0.0 0.0 0.00 0.00 0.00 99 1011.9
20260507113214 3 29 0.0 0.0 0.00 0.00 0.00 99 1012.0
20260507112712 2 25 0.0 0.0 0.00 0.00 0.00 99 1011.9
20260507112209 1 22 0.0 0.0 0.00 0.00 0.00 99 1011.9
20260507111706 1 16 0.0 0.0 0.00 0.00 0.00 99 1011.8
20260507111203 1 16 0.0 0.0 0.00 0.00 0.00 99 1011.9
20260507110659 1 15 0.0 0.0 0.00 0.00 0.00 99 1011.8
20260507110156 0 20 0.0 0.0 0.00 0.00 0.00 99 1011.7
20260507105653 0 21 0.0 0.0 0.00 0.00 0.00 99 1011.7
20260507105149 0 23 0.0 0.0 0.00 0.00 0.00 99 1011.6
20260507104646 0 22 0.0 0.0 0.00 0.00 0.00 99 1011.7
20260507104142 0 22 0.0 0.0 0.00 0.00 0.00 99 1011.7
20260507103638 0 21 0.0 0.0 0.00 0.00 0.00 99 1011.5
20260507103135 0 22 0.0 0.0 0.00 0.00 0.00 99 1011.4
20260507102632 0 21 0.0 0.0 0.00 0.00 0.00 99 1011.3
20260507102128 0 19 0.0 0.0 0.00 0.00 0.00 99 1011.5
20260507101624 0 11 0.0 0.0 0.00 0.00 0.00 99 1011.6
20260507101120 0 16 0.0 0.0 0.00 0.00 0.00 99 1011.4
20260507100618 0 20 0.0 0.0 0.00 0.00 0.00 98 1011.4
20260507100116 0 22 0.0 0.0 0.00 0.00 0.00 99 1011.4
20260507095613 0 22 0.0 0.0 0.00 0.00 0.00 98 1011.4
20260507095109 0 25 0.0 0.0 0.00 0.00 0.00 98 1011.6
20260507094606 0 24 0.0 0.0 0.00 0.00 0.00 98 1011.5
20260507094103 0 30 0.0 0.0 0.00 0.00 0.00 98 1011.2
20260507093600 0 23 0.0 0.0 0.00 0.00 0.00 98 1011.4
20260507093059 0 24 0.0 0.0 0.00 0.00 0.00 98 1011.5
20260507092555 0 24 0.0 0.0 0.00 0.00 0.00 98 1011.5
20260507092052 0 21 0.0 0.0 0.00 0.00 0.00 98 1011.5
20260507091549 1 21 0.0 0.0 0.00 0.00 0.00 98 1011.6
20260507091045 1 22 0.0 0.0 0.00 0.00 0.00 98 1011.7
20260507090540 1 25 0.0 0.0 0.00 0.00 0.00 98 1011.5
20260507090038 1 20 0.0 0.0 0.00 0.00 0.00 98 1011.5
20260507085535 1 16 0.0 0.0 0.00 0.00 0.00 97 1011.4
20260507085031 1 18 0.0 0.0 0.00 0.00 0.00 97 1011.6
20260507084528 1 18 0.0 0.0 0.00 0.00 0.00 97 1011.5
20260507084025 1 15 0.0 0.0 0.00 0.00 0.00 97 1011.4
20260507083521 1 11 0.0 0.0 0.00 0.00 0.00 97 1011.4
20260507083019 1 13 0.0 0.0 0.00 0.00 0.00 97 1011.5
20260507082514 1 15 0.0 0.0 0.00 0.00 0.00 97 1011.5
20260507082010 2 15 0.0 0.0 0.00 0.00 0.00 97 1011.6
20260507081507 2 13 0.0 0.0 0.00 0.00 0.00 97 1011.7
20260507081004 2 16 0.0 0.0 0.00 0.00 0.00 96 1011.5
20260507080500 2 16 0.0 0.0 0.00 0.00 0.00 96 1011.6
20260507075955 2 15 0.0 0.0 0.00 0.00 0.00 96 1011.6
20260507075452 2 15 0.0 0.0 0.00 0.00 0.00 96 1011.7
20260507074948 2 12 0.0 0.0 0.00 0.00 0.00 96 1011.7
20260507074445 2 8 0.0 0.0 0.00 0.00 0.00 96 1011.5
20260507073944 2 16 0.0 0.0 0.00 0.00 0.00 95 1011.5
20260507073439 3 14 0.0 0.0 0.00 0.00 0.00 95 1011.5
20260507072936 2 17 0.0 0.0 0.00 0.00 0.00 95 1011.7
20260507072434 3 16 0.0 0.0 0.00 0.00 0.00 95 1011.7
20260507071931 3 16 0.0 0.0 0.00 0.00 0.00 94 1011.8
20260507071428 3 15 0.0 0.0 0.00 0.00 0.00 94 1011.8
20260507070924 3 25 0.0 0.0 0.00 0.00 0.00 93 1011.6
20260507070422 3 21 0.0 0.0 0.00 0.00 0.00 93 1011.8
20260507065918 3 16 0.0 0.0 0.00 0.00 0.00 92 1011.7
20260507065415 3 10 0.0 0.0 0.00 0.00 0.00 92 1011.8
20260507064913 3 5 0.0 0.0 0.00 0.00 0.00 91 1011.8
20260507064411 4 15 0.0 0.0 0.00 0.00 0.00 89 1011.7
20260507063908 4 7 0.0 0.0 0.00 0.00 0.00 88 1011.6
20260507063405 4 18 0.0 0.0 0.00 0.00 0.00 88 1011.7
20260507062902 5 12 0.0 0.0 0.00 0.00 0.00 87 1011.6
20260507062359 5 10 0.0 0.0 0.00 0.00 0.00 86 1011.9
20260507061856 5 13 0.0 0.0 0.00 0.00 0.00 85 1011.7
20260507061355 5 11 0.0 0.0 0.00 0.00 0.00 84 1011.9
20260507060853 5 12 0.0 0.0 0.00 0.00 0.00 82 1011.9
20260507060349 5 13 0.0 0.0 0.00 0.00 0.00 82 1011.9
20260507055846 5 12 0.0 0.0 0.00 0.00 0.00 82 1011.8
20260507055341 6 15 0.0 0.0 0.00 0.00 0.00 82 1011.9
20260507054838 6 11 0.0 0.0 0.00 0.00 0.00 82 1012.0
20260507054334 6 16 0.0 0.0 0.00 0.00 0.00 82 1012.2
20260507053831 6 20 0.0 0.0 0.00 0.00 0.00 81 1012.1
20260507053329 6 20 0.0 0.0 0.00 0.00 0.00 80 1012.1
20260507052828 6 15 0.0 0.0 0.00 0.00 0.00 80 1012.3
20260507052324 6 15 0.0 0.0 0.00 0.00 0.00 79 1012.5
20260507051822 6 18 0.0 0.0 0.00 0.00 0.00 78 1012.4
20260507051319 6 21 0.0 0.0 0.00 0.00 0.00 79 1012.5
20260507050816 6 19 0.0 0.0 0.00 0.00 0.00 77 1012.5
20260507050312 7 17 0.0 0.0 0.00 0.00 0.00 76 1012.6
20260507045809 7 8 0.0 0.0 0.00 0.00 0.00 76 1012.6
20260507045307 7 9 0.0 0.0 0.00 0.00 0.00 76 1012.6
20260507044803 7 12 0.0 0.0 0.00 0.00 0.00 76 1012.6
20260507044259 7 13 0.0 0.0 0.00 0.00 0.00 76 1012.5
20260507043755 7 14 0.0 0.0 0.00 0.00 0.00 76 1012.7
20260507043252 7 6 1.6 1.6 0.00 0.00 0.00 75 1012.6
20260507042748 7 9 0.0 0.0 0.00 0.00 0.00 75 1012.5
20260507042243 7 15 0.0 0.0 0.00 0.00 0.00 74 1012.6
20260507041742 7 4 0.0 0.0 0.00 0.00 0.00 75 1012.4
20260507041238 7 5 3.2 3.2 0.00 0.00 0.00 74 1012.4
20260507040735 7 331 1.6 1.6 0.00 0.00 0.00 74 1012.4
20260507040231 7 1 1.6 1.6 0.00 0.00 0.00 75 1012.3
20260507035727 7 14 1.6 1.6 0.00 1.42 1.42 76 1012.4
20260507035222 7 6 0.0 0.0 0.00 1.42 1.42 74 1012.5
20260507034720 7 3 0.0 0.0 0.00 1.42 1.42 73 1012.3
20260507034217 7 11 0.0 0.0 0.00 1.42 1.42 73 1012.2
20260507033716 7 14 0.0 0.0 0.00 1.42 1.42 73 1012.1
20260507033213 7 8 0.0 1.6 0.00 1.42 1.42 73 1012.3
20260507032710 7 2 1.6 1.6 0.00 1.42 1.42 74 1012.2
20260507032206 7 18 0.0 0.0 0.00 1.42 1.42 79 1012.0
20260507031703 7 7 0.0 0.0 0.00 1.42 1.42 77 1012.1
20260507031159 7 11 0.0 1.6 0.00 1.42 1.42 80 1012.2
20260507030656 7 12 0.0 0.0 0.00 1.42 1.42 79 1012.3
20260507030154 7 347 0.0 0.0 0.00 1.42 1.42 79 1012.1
20260507025651 7 359 1.6 1.6 0.00 1.42 1.42 78 1012.1
20260507025148 7 348 0.0 0.0 0.00 1.42 1.42 80 1011.9
20260507024646 7 353 0.0 0.0 0.00 1.42 1.42 77 1011.8
20260507024143 7 12 0.0 0.0 0.00 1.42 1.42 79 1011.7
20260507023638 7 12 0.0 0.0 0.00 1.42 1.42 76 1012.0
20260507023136 7 10 0.0 0.0 0.00 1.42 1.42 73 1011.9
20260507022633 7 15 0.0 0.0 0.00 1.42 1.42 76 1011.7
20260507022128 7 7 0.0 0.0 0.00 1.42 1.42 77 1011.9
20260507021625 8 14 0.0 0.0 0.00 1.42 1.42 73 1011.9
20260507021120 8 14 0.0 0.0 0.00 1.42 1.42 70 1011.5
20260507020619 8 14 0.0 0.0 0.00 1.42 1.42 72 1011.6
20260507020114 8 5 0.0 0.0 0.00 1.42 1.42 72 1011.7
20260507015613 8 11 0.0 0.0 0.00 1.42 1.42 71 1011.5
20260507015110 8 14 0.0 0.0 0.00 1.42 1.42 70 1011.6
20260507014607 8 10 0.0 0.0 0.00 1.42 1.42 69 1011.3
20260507014102 8 5 1.6 1.6 0.00 1.42 1.42 67 1011.4
20260507013559 8 340 1.6 1.6 0.00 1.42 1.42 68 1011.3
20260507013057 8 14 1.6 1.6 0.00 1.42 1.42 67 1011.3
20260507012554 8 32 1.6 1.6 0.00 1.42 1.42 67 1011.2
20260507012049 8 16 0.0 0.0 0.00 1.42 1.42 68 1011.5
20260507011548 8 17 0.0 0.0 0.00 1.42 1.42 68 1011.3
20260507011043 8 16 1.6 1.6 0.00 1.42 1.42 67 1011.5
20260507010538 9 16 0.0 0.0 0.00 1.42 1.42 66 1011.5
20260507010035 9 318 0.0 0.0 0.00 1.42 1.42 65 1011.5
20260507005532 9 332 3.2 4.8 0.00 1.42 1.42 65 1011.7
20260507005028 9 18 0.0 0.0 0.00 1.42 1.42 66 1011.8
20260507004526 9 335 3.2 4.8 0.00 1.42 1.42 65 1011.6
20260507004023 9 336 3.2 3.2 0.00 1.42 1.42 64 1011.7
20260507003518 10 322 3.2 3.2 0.00 1.42 1.42 64 1011.6
20260507003014 10 10 0.0 0.0 0.00 1.42 1.42 65 1011.6
20260507002510 10 28 1.6 1.6 0.00 1.42 1.42 66 1011.1
20260507002006 10 347 4.8 4.8 0.00 1.42 1.42 64 1011.6
20260507001503 10 322 0.0 1.6 0.00 1.42 1.42 65 1011.5
20260507001001 10 14 0.0 0.0 0.00 1.42 1.42 66 1011.4
20260507000456 10 351 1.6 1.6 0.00 1.42 1.42 65 1011.3
20260506235952 10 45 0.0 0.0 0.00 1.42 1.42 65 1011.4
20260506235450 10 298 1.6 3.2 0.00 1.42 1.42 64 1011.7
20260506234945 10 321 1.6 3.2 0.00 1.42 1.42 64 1011.4
20260506234443 10 5 3.2 3.2 0.00 1.42 1.42 64 1011.5
20260506233940 10 274 6.4 6.4 0.00 1.42 1.42 65 1011.1
20260506233437 10 305 3.2 3.2 0.00 1.42 1.42 65 1011.0
20260506232933 10 320 3.2 4.8 0.00 1.42 1.42 65 1011.1
20260506232430 10 304 3.2 4.8 0.00 1.42 1.42 63 1011.0
20260506231925 10 345 3.2 3.2 0.00 1.42 1.42 66 1011.1